GFSSW_850_thetae_000.txt.gz
Theta_e
317 317 317 317 318 319 319 318 318 317 316 317 317 316 315 313 313 314 317 316 316 316 317 317 316 317 318 318 317 318 312 313 311 311 314 312 311 310 310 310 309 310 308 309 307
317 317 316 316 317 317 317 317 317 316 315 314 317 315 316 315 315 315 316 316 316 317 317 318 318 316 318 317 316 312 311 314 311 310 313 313 312 311 309 307 306 306 307 307 306
314 315 315 316 316 316 316 316 316 315 314 314 314 317 316 316 317 315 316 315 315 315 316 319 319 315 315 317 315 312 310 314 314 314 314 313 311 311 308 305 309 310 309 306 304
311 312 312 313 314 314 315 315 315 314 314 314 314 316 317 317 316 315 316 315 314 314 315 319 318 316 313 314 314 314 313 313 314 315 314 312 311 309 309 312 312 311 310 307 305
310 310 310 311 312 312 312 313 313 313 313 313 314 315 316 318 316 315 314 314 313 314 315 319 317 314 313 312 313 313 313 315 314 314 314 312 311 309 309 312 311 311 308 307 305
312 312 311 310 310 310 311 311 311 312 312 312 313 315 316 316 318 315 314 314 314 314 314 318 316 315 314 314 313 312 313 312 313 313 313 311 310 308 310 310 310 309 307 305 303
313 313 312 312 311 310 310 310 310 311 311 312 313 315 316 317 318 318 314 312 313 314 314 316 315 316 313 311 312 312 311 309 310 311 311 311 309 306 310 308 307 305 304 302 302
312 313 312 312 311 311 310 310 310 310 311 312 314 315 316 317 319 318 312 311 313 314 314 315 315 315 313 312 311 310 309 312 311 310 310 310 310 308 310 307 304 304 302 302 301
311 312 312 311 311 310 310 309 309 310 311 313 314 315 316 317 317 317 311 311 312 313 313 315 315 313 311 310 311 308 313 311 310 309 309 308 309 308 308 305 303 303 302 301 301
311 311 310 310 309 309 309 309 309 311 313 315 315 316 315 316 317 317 313 310 312 313 314 315 313 309 306 311 315 314 312 309 307 309 308 308 307 308 308 303 304 304 302 300 300
310 309 308 308 308 308 308 308 311 312 316 315 314 315 314 314 315 315 315 314 313 311 312 312 311 312 311 309 312 311 309 307 306 306 308 307 307 309 309 302 300 300 299 300 300
308 307 306 306 307 307 307 308 314 312 312 312 312 312 313 314 314 314 315 314 311 309 310 311 312 310 310 309 309 308 309 307 306 306 306 306 306 306 307 304 304 302 300 301 299
306 305 304 304 306 307 307 309 312 313 311 312 311 311 312 311 312 312 313 311 309 309 309 311 313 309 310 308 308 307 307 307 308 304 303 301 304 302 304 305 305 304 304 301 300
305 304 303 303 306 307 309 311 312 313 302 305 309 312 313 314 312 312 311 310 308 308 308 311 309 308 307 308 307 310 305 306 306 305 306 304 310 305 305 304 302 304 304 303 300
307 306 304 304 307 308 310 313 312 313 304 306 310 311 313 310 309 309 309 309 309 309 310 313 307 307 308 308 305 308 304 305 304 304 302 303 302 302 300 303 305 303 304 304 302
312 309 305 305 306 307 309 312 313 305 307 306 311 310 310 310 309 309 308 309 308 309 307 308 307 305 307 305 304 304 305 301 298 299 304 305 304 304 301 302 303 302 303 304 302
313 312 308 307 308 308 309 311 308 306 306 307 311 309 309 309 308 308 306 306 309 312 311 310 306 305 306 307 306 304 306 310 308 304 310 300 300 307 304 301 302 301 301 302 301
314 312 310 312 308 310 311 308 311 306 305 308 310 309 311 308 308 307 307 308 306 309 308 312 313 305 303 307 307 303 306 310 307 307 309 298 306 307 301 301 299 298 299 300 299
314 312 311 311 308 312 308 308 307 309 305 309 310 311 310 309 310 307 306 307 308 308 314 311 311 303 304 303 305 305 305 305 305 289 299 308 304 303 302 299 296 295 297 300 299
313 311 311 311 310 314 301 309 308 308 306 309 308 308 309 309 308 308 307 306 310 307 311 312 314 304 301 302 299 302 301 305 304 307 301 306 306 309 309 304 302 295 295 301 299
314 312 311 311 311 311 312 307 306 311 310 309 307 307 308 309 308 307 309 308 307 306 308 307 311 307 302 302 303 299 302 301 302 303 307 304 310 305 307 305 304 297 302 303 302
314 312 310 311 312 311 311 307 309 307 310 310 309 307 307 309 310 307 308 310 309 305 308 306 308 311 308 299 297 302 302 303 307 307 301 303 311 303 304 303 300 298 303 304 302
314 312 310 311 312 312 307 307 309 308 307 309 310 309 308 309 311 308 308 307 307 306 307 305 308 313 310 304 300 299 301 301 302 301 304 307 311 299 299 298 296 297 301 301 301
314 311 307 308 311 309 310 309 309 309 308 308 308 308 309 309 309 310 308 307 307 307 309 308 308 309 311 309 304 302 300 301 305 307 309 309 309 309 308 308 308 303 299 302 301
314 310 308 308 309 310 308 308 308 308 308 309 308 308 308 310 309 310 309 308 303 305 306 307 311 310 309 309 302 303 303 303 302 305 307 309 308 309 308 308 308 309 308 302 298
316 311 309 309 309 309 310 311 309 308 308 309 309 308 309 310 309 309 309 308 310 300 302 301 310 309 310 308 305 307 308 308 302 303 303 305 307 308 309 309 308 307 306 302 300
315 314 311 308 308 309 309 309 310 310 309 308 309 309 309 308 309 309 309 308 308 307 301 300 304 301 311 305 304 307 308 309 309 308 306 306 306 307 307 307 306 306 303 302 301

GFSSW_850_thetae_003.txt.gz
Theta_e
316 316 315 316 316 317 317 316 316 315 314 314 317 315 315 314 313 315 317 317 317 317 317 316 316 317 317 317 317 318 314 314 313 311 313 310 310 310 310 310 310 311 310 310 309
314 314 314 314 315 315 315 315 315 315 314 314 314 316 315 315 315 315 317 316 316 316 316 318 318 316 318 317 315 311 311 314 311 309 312 311 311 311 309 308 308 310 311 310 309
311 311 311 312 313 313 313 313 314 314 313 313 314 315 315 315 316 315 317 315 315 316 317 319 319 315 315 316 314 311 311 312 313 313 313 312 311 310 308 307 311 314 313 310 309
310 310 310 310 311 311 312 312 312 312 313 312 313 315 316 317 316 315 316 315 314 314 316 319 319 317 313 313 314 314 312 313 314 314 313 312 311 308 308 313 313 313 312 311 309
312 312 312 312 311 310 310 311 311 311 311 312 312 313 316 316 317 315 315 314 314 314 315 318 318 316 314 312 312 312 312 314 314 314 313 312 311 309 310 313 312 311 311 310 309
313 313 313 313 313 313 312 310 310 310 310 311 311 313 315 315 317 317 315 314 314 313 314 316 317 316 314 314 312 312 312 312 312 312 312 311 310 310 311 313 312 311 310 309 308
312 313 313 313 313 313 313 312 311 310 310 310 311 313 314 315 316 317 316 314 313 313 314 314 316 315 313 309 311 311 311 309 309 310 310 310 309 307 312 311 311 310 309 308 307
311 311 312 312 312 312 312 311 311 310 310 310 311 314 314 315 317 317 316 312 312 312 313 313 315 315 312 311 310 310 308 312 311 309 311 310 313 309 311 309 310 309 308 307 307
312 312 311 311 311 311 310 310 310 310 310 311 312 314 315 316 316 317 317 311 311 312 313 313 315 313 311 310 311 309 314 311 310 308 309 308 311 309 311 308 307 308 307 306 305
312 311 311 311 310 309 309 308 309 310 311 313 314 316 314 315 317 317 316 311 310 311 312 313 312 308 306 310 312 311 312 310 309 309 307 308 308 309 310 309 307 306 306 304 304
311 311 311 309 307 306 307 307 310 310 313 314 313 315 313 314 314 315 315 313 311 311 310 311 310 311 310 309 311 311 311 311 308 306 307 307 308 309 309 307 304 304 303 304 306
306 308 308 307 306 305 306 307 308 310 310 311 312 313 314 314 313 313 314 313 311 309 308 309 311 309 309 307 309 308 309 308 306 305 305 305 307 308 307 308 309 305 303 304 303
306 305 305 305 305 304 305 307 308 311 312 312 312 311 311 311 311 311 312 312 308 306 307 309 310 307 309 308 308 307 307 308 309 304 303 302 305 303 304 305 306 306 306 306 306
308 307 306 305 304 305 307 309 311 312 302 305 307 310 311 312 310 310 311 310 307 307 305 308 308 309 308 309 307 310 305 307 307 306 308 303 311 306 306 306 304 306 306 308 307
311 311 309 307 306 307 309 312 311 311 303 306 307 309 313 310 308 308 308 308 306 306 308 310 306 307 308 309 306 309 304 304 304 304 302 303 304 307 300 304 307 305 308 309 309
312 313 312 309 306 307 309 311 312 305 306 306 310 309 310 309 308 307 307 307 307 308 307 307 306 305 308 303 305 302 304 301 298 300 305 307 307 306 304 305 305 304 308 309 308
313 313 312 310 308 308 309 310 306 303 305 306 309 308 309 309 308 306 306 305 307 310 309 309 306 304 305 307 305 304 307 310 309 306 311 299 302 308 305 302 304 306 307 307 306
314 314 313 311 309 309 310 308 307 304 304 308 309 309 310 307 308 306 306 307 304 308 307 311 312 304 303 308 309 304 307 311 309 307 309 297 305 309 302 305 304 305 305 306 307
316 315 313 311 309 310 307 309 305 306 305 306 309 310 309 309 308 306 305 306 306 307 312 310 311 303 303 303 305 304 306 305 304 289 303 308 306 305 303 302 299 299 300 304 307
318 316 315 312 309 310 304 307 305 306 305 307 307 307 306 307 306 307 306 305 308 306 310 311 313 304 300 302 299 303 301 306 305 309 305 308 309 310 306 306 303 301 299 306 307
318 314 313 312 310 309 306 305 305 309 308 307 306 305 305 306 307 305 307 306 306 307 307 308 312 307 302 303 303 301 303 302 304 305 307 306 310 305 306 305 305 304 305 308 309
316 313 311 311 311 311 310 306 308 307 308 307 306 305 304 306 307 305 307 308 308 305 308 307 310 313 304 300 299 301 304 305 308 307 302 304 310 305 307 304 303 305 307 308 307
315 314 311 310 312 312 307 307 308 308 306 308 309 307 306 305 308 306 306 306 308 306 307 306 309 311 312 303 300 302 301 302 302 302 309 307 310 306 303 303 304 303 304 306 307
315 310 307 308 311 311 311 310 310 309 308 308 307 307 308 308 307 309 307 306 307 307 309 309 309 312 311 309 304 303 300 302 304 309 309 308 309 309 309 307 304 305 306 305 305
316 310 306 307 309 311 310 309 311 310 308 308 309 309 308 309 309 309 308 307 304 304 306 307 312 311 311 310 305 304 305 304 304 306 308 309 308 308 309 308 308 308 308 307 307
316 308 308 308 308 309 311 311 310 310 308 309 309 309 308 309 309 309 308 308 310 303 304 303 310 309 312 310 306 307 306 308 306 306 304 305 306 308 308 308 307 308 308 307 306
314 315 309 307 308 309 309 310 311 310 311 309 310 310 309 308 309 309 309 309 309 309 308 304 307 309 312 310 305 307 309 310 309 308 308 308 307 307 306 306 306 306 307 306 306

GFSSW_850_thetae_006.txt.gz
Theta_e
315 315 314 314 314 314 314 315 315 314 314 314 316 315 315 314 313 315 316 317 317 316 316 317 316 317 317 317 317 318 322 322 320 318 319 313 315 311 311 312 310 311 312 312 310
312 312 312 312 313 313 313 313 313 313 313 313 314 316 315 315 315 315 317 316 315 316 317 317 317 317 318 317 316 318 320 320 318 317 318 315 314 315 312 312 311 311 312 312 311
310 310 310 310 311 311 311 311 311 312 312 313 313 314 316 315 316 316 317 316 315 315 317 317 317 316 317 316 316 316 321 317 317 315 314 315 313 312 314 316 315 315 313 312 310
312 312 312 312 311 310 310 310 311 311 311 311 312 313 315 316 319 316 317 316 314 314 316 317 318 317 319 319 315 318 315 315 315 314 313 314 312 313 312 316 315 314 312 312 310
312 313 313 313 313 314 313 312 310 310 310 310 311 312 314 315 316 316 316 316 314 314 314 316 318 316 320 316 315 317 315 314 315 313 313 312 313 314 313 314 313 313 312 311 310
312 313 313 314 314 314 313 313 312 311 310 309 310 311 313 315 315 317 315 314 314 314 313 315 317 317 315 317 317 314 314 315 313 313 313 314 315 310 315 314 313 313 312 311 310
312 312 312 312 312 312 313 313 312 311 310 309 309 311 313 314 314 316 316 314 313 313 313 314 316 316 315 314 311 312 316 317 314 313 314 311 315 315 315 313 311 311 311 311 310
312 312 312 312 312 312 312 312 312 311 311 310 310 312 313 313 315 315 316 315 312 312 312 313 314 315 313 311 312 315 314 319 316 313 312 313 317 318 314 310 312 311 308 310 310
313 313 313 313 313 312 312 311 311 310 310 310 311 312 315 314 315 316 317 313 311 311 312 312 314 314 312 317 318 317 319 318 316 312 313 314 317 316 314 311 311 312 310 307 309
313 314 313 313 312 312 312 310 310 310 310 312 313 315 313 314 315 316 316 314 311 311 312 312 313 317 315 318 317 319 318 317 317 315 311 314 315 315 314 311 312 313 313 308 306
306 309 311 311 311 310 310 308 308 309 311 312 314 314 313 314 315 315 315 313 310 310 314 313 316 317 318 317 317 316 316 318 318 311 312 314 314 314 313 313 313 312 313 309 305
307 306 306 307 308 307 306 305 306 308 309 309 311 312 313 314 314 313 313 313 312 314 312 314 316 317 313 313 314 315 317 319 317 310 309 313 312 312 312 313 312 313 313 312 306
309 308 307 306 306 305 305 305 306 308 312 311 310 310 311 311 311 312 312 312 313 313 313 315 316 310 313 313 314 315 317 318 316 311 308 308 313 311 311 308 309 310 310 310 307
310 310 309 308 307 306 306 307 309 311 312 311 309 310 310 311 309 309 311 311 310 313 312 314 312 312 313 315 315 317 314 313 312 313 316 309 316 315 313 311 311 312 311 308 310
313 311 309 308 308 307 308 310 311 309 312 309 307 308 312 311 308 308 308 308 312 310 312 315 311 311 314 315 313 316 308 310 309 312 309 314 312 314 307 310 312 314 313 309 310
315 313 311 310 310 307 308 310 311 309 308 309 310 310 312 310 308 306 307 307 307 310 309 312 306 310 313 305 307 305 308 308 306 308 314 314 313 313 313 312 312 313 311 309 310
317 314 313 312 311 308 309 310 311 308 306 309 312 310 311 312 310 308 308 308 312 313 314 312 311 307 306 311 307 308 313 318 321 318 318 309 310 312 312 312 312 314 313 309 308
320 316 315 313 312 309 309 311 309 311 310 308 310 310 313 311 311 309 309 312 309 309 313 315 316 308 308 314 316 310 315 320 323 319 318 305 311 314 311 311 311 307 307 307 307
321 317 315 315 314 309 307 310 310 311 310 309 310 311 312 311 310 310 311 313 313 310 315 314 315 305 304 305 311 309 312 312 317 305 313 314 315 312 309 308 307 306 306 306 307
322 318 316 316 314 309 308 310 310 309 307 309 311 311 311 312 310 311 311 311 313 309 312 314 314 308 302 303 302 306 307 312 313 320 319 315 315 314 313 311 309 307 307 308 308
321 315 316 315 311 309 310 309 309 308 307 310 311 311 310 311 311 311 311 311 311 309 309 312 314 310 305 307 310 306 309 307 309 313 317 316 315 310 311 311 310 310 310 310 308
317 315 315 314 310 309 310 310 307 308 306 309 308 309 310 309 310 311 311 311 310 308 309 311 313 315 313 303 302 308 310 310 313 314 311 313 315 310 310 311 309 310 309 309 310
316 315 312 313 314 310 310 311 309 310 309 309 310 310 308 309 308 310 311 309 308 310 311 309 312 317 315 306 301 306 306 308 310 312 313 315 313 312 312 310 308 309 309 309 310
316 312 307 308 311 312 312 313 312 310 310 307 308 308 308 310 309 310 310 308 306 308 309 309 312 315 313 313 308 309 308 307 309 312 313 313 312 312 312 311 311 310 305 307 308
316 311 307 305 306 310 311 313 315 313 310 309 309 309 310 311 311 311 311 311 305 306 307 310 313 313 314 314 313 313 311 309 308 309 311 312 312 312 312 311 311 310 309 309 309
312 310 306 308 308 308 309 312 313 314 314 312 311 312 309 310 311 316 313 310 310 307 310 307 313 312 312 311 311 312 311 312 312 311 311 309 309 309 310 310 309 309 309 308 308
308 311 309 306 307 307 308 309 311 312 312 312 312 311 312 311 310 310 311 311 310 310 310 308 310 312 314 312 312 313 312 312 312 312 312 312 311 311 311 310 310 310 309 308 307

GFSSW_850_thetae_009.txt.gz
Theta_e
314 313 313 313 313 313 313 313 313 313 313 314 314 315 315 314 313 315 316 317 317 317 317 317 316 316 317 320 319 320 322 325 324 322 323 318 318 316 315 317 315 315 315 315 313
311 311 311 311 311 311 311 311 311 312 312 312 313 314 315 315 315 315 317 317 316 316 317 318 318 317 320 320 319 321 324 324 322 321 320 319 318 319 315 316 316 315 314 313 311
310 310 311 311 311 310 310 310 310 311 311 311 312 312 314 315 316 318 316 317 315 315 317 318 318 318 320 320 321 321 323 321 321 318 317 318 318 317 317 318 319 318 317 313 310
312 312 312 313 313 313 313 313 311 310 310 310 310 311 313 315 320 317 316 317 315 314 315 317 317 319 321 322 320 321 321 319 319 317 316 317 317 317 316 318 317 317 317 315 312
312 312 313 313 313 314 314 313 313 312 311 310 309 310 312 316 317 317 315 316 315 313 313 316 319 321 321 321 319 320 320 318 317 316 316 317 316 317 318 318 317 315 314 313 312
312 312 312 312 312 313 313 313 313 313 312 310 309 309 312 316 315 315 316 315 314 313 313 314 318 318 318 318 320 319 318 318 318 317 317 316 317 315 318 317 317 316 313 312 312
312 312 312 312 312 312 312 312 312 313 312 311 310 309 313 314 314 314 316 315 314 313 313 313 314 317 319 320 317 316 318 319 319 317 317 315 317 318 317 315 315 315 314 313 312
313 313 313 313 313 313 313 313 313 312 312 311 310 311 315 314 313 313 315 315 314 313 312 312 313 316 316 315 316 317 318 319 320 317 316 315 318 318 318 316 314 315 315 313 312
311 313 314 314 314 314 314 313 313 312 311 310 310 312 315 314 313 314 315 314 313 312 312 312 313 317 315 318 319 320 321 321 321 317 317 316 318 318 317 315 315 315 315 315 313
306 306 308 312 314 314 314 313 312 311 310 310 312 315 314 314 314 315 315 314 311 311 312 313 315 318 318 319 319 319 319 320 320 319 316 317 317 317 316 316 316 315 315 315 315
309 307 306 306 307 309 310 310 312 313 309 316 317 316 313 313 314 314 315 314 311 313 316 316 317 318 319 319 319 319 318 318 318 319 317 317 317 317 317 316 316 316 315 315 315
311 310 309 307 306 306 306 306 307 308 310 310 309 311 312 314 314 314 314 313 313 316 316 316 316 317 317 317 318 318 318 318 319 319 314 316 317 317 317 317 316 315 315 315 315
313 312 310 310 308 307 306 305 305 306 311 311 310 310 311 311 313 314 313 313 315 316 316 317 317 315 316 317 317 317 317 318 319 319 314 314 316 317 316 314 314 313 313 313 314
318 317 314 310 311 309 308 306 307 309 311 313 311 312 310 311 311 311 312 312 314 315 315 316 316 316 315 315 316 317 317 318 318 318 319 314 318 318 317 316 315 313 313 314 312
320 318 320 317 309 311 308 309 310 307 315 312 309 309 311 311 310 308 309 309 313 314 314 315 316 314 315 316 316 317 312 315 316 317 318 317 318 317 312 314 313 314 314 315 314
321 319 317 317 314 310 308 310 310 312 314 311 311 311 313 311 310 307 308 308 309 312 312 314 310 313 315 310 312 310 312 312 312 314 318 317 318 317 317 314 314 315 314 314 312
323 321 318 317 315 311 308 310 311 311 311 314 313 312 313 314 313 309 309 309 313 314 315 316 314 312 310 313 310 311 315 318 322 321 321 318 316 317 317 314 314 314 314 314 311
323 323 320 318 317 314 309 312 312 312 315 311 312 313 314 314 314 312 313 313 311 314 315 316 317 314 310 314 318 313 316 320 324 320 320 313 316 316 316 315 313 313 312 311 310
323 323 319 318 317 316 309 312 316 315 314 314 314 312 313 313 313 314 314 315 315 313 315 315 316 309 310 310 314 314 313 315 320 319 319 316 317 318 315 313 313 311 310 310 308
321 319 321 319 318 313 309 313 319 315 313 312 314 314 314 314 313 313 314 315 314 314 313 315 315 314 305 306 307 310 311 315 315 322 319 317 318 318 315 314 313 312 311 311 310
319 318 318 318 315 310 310 311 317 316 313 310 311 312 314 314 314 314 313 315 314 314 313 314 315 314 307 309 313 309 311 310 311 317 318 318 317 314 315 314 314 314 312 312 312
318 316 315 316 310 308 309 312 313 315 311 309 309 310 312 313 313 313 314 314 313 312 312 312 314 315 314 313 309 311 313 313 314 315 314 315 316 314 313 313 312 312 311 311 312
315 315 313 314 315 310 310 313 313 315 315 309 310 310 310 310 310 311 312 313 312 312 312 311 313 316 314 311 306 309 311 312 313 313 315 317 316 314 314 314 314 311 311 311 310
314 314 307 308 311 314 310 313 314 313 313 313 310 310 311 311 311 312 312 312 308 309 308 310 315 314 315 315 313 312 311 311 311 313 314 314 314 314 314 313 313 313 313 312 311
309 314 310 309 309 311 312 312 314 314 313 312 312 312 311 314 314 313 312 312 310 308 310 310 312 312 313 313 314 312 313 312 311 311 312 312 313 313 313 313 313 313 312 311 311
305 311 307 309 312 309 310 313 313 314 314 315 314 314 313 313 314 317 315 314 313 310 309 310 312 311 313 312 312 312 312 312 312 312 313 313 312 312 312 312 312 312 311 311 310
301 301 299 303 308 310 311 311 312 313 313 314 315 315 314 312 312 313 313 313 314 311 309 308 311 312 314 313 313 314 313 313 312 313 314 314 314 314 314 313 313 313 313 312 311

GFSSW_850_thetae_015.txt.gz
Theta_e
311 311 310 310 310 310 310 310 310 311 310 311 311 312 313 315 315 314 316 317 318 316 316 316 317 316 318 320 320 320 314 316 319 321 320 318 317 317 318 317 317 318 318 318 318
310 310 311 311 312 312 313 313 312 311 310 310 310 310 311 312 314 315 316 316 317 316 316 317 318 318 318 320 320 319 316 319 319 318 318 317 316 317 316 316 316 317 317 317 316
311 311 311 312 312 313 313 313 313 313 313 312 311 310 310 311 312 314 317 317 316 316 315 317 318 318 318 320 320 317 315 317 319 319 318 317 316 317 315 313 316 317 317 317 316
312 312 312 312 312 312 313 313 313 313 313 313 312 311 310 310 310 318 317 316 317 316 314 316 317 318 317 317 321 318 319 319 319 319 318 316 316 317 317 317 318 318 317 317 317
312 312 312 312 312 312 312 312 312 312 312 312 312 312 310 311 311 312 313 315 315 315 315 314 317 318 317 318 319 318 317 319 319 318 318 317 316 314 316 317 317 317 317 317 316
312 312 312 312 312 312 312 313 313 313 313 313 312 311 310 312 314 313 314 315 315 315 314 313 315 317 318 317 316 317 317 316 317 318 316 316 314 315 317 317 317 317 317 317 317
308 308 309 310 312 313 313 313 314 314 314 314 313 311 310 313 314 314 313 313 313 314 314 313 313 315 316 317 317 316 315 312 314 316 314 316 313 313 318 316 317 318 317 317 317
312 312 311 309 308 308 309 312 313 314 315 314 312 310 311 314 313 314 314 314 313 313 313 313 314 313 315 316 315 314 314 314 314 313 315 315 314 313 317 316 316 316 317 317 317
313 312 312 312 312 311 309 308 307 308 311 312 311 310 312 314 314 315 315 313 313 313 312 312 312 313 315 312 311 312 312 313 314 314 312 312 313 312 316 316 316 316 317 317 317
313 313 312 312 312 312 313 312 310 307 308 310 311 314 314 315 314 314 314 313 313 312 311 311 312 311 311 310 312 311 312 313 313 313 313 312 313 312 315 314 315 316 315 315 316
315 315 313 314 312 312 312 312 310 312 312 313 314 313 315 315 314 314 314 312 312 312 310 312 310 311 312 312 311 312 311 311 314 313 314 315 313 313 314 313 312 315 316 317 317
319 319 318 320 317 311 311 310 309 310 308 308 308 310 312 314 315 314 313 312 312 311 311 313 312 311 312 311 312 311 312 312 312 311 311 312 313 313 311 313 315 313 315 316 315
321 320 321 322 321 317 311 310 307 306 310 307 310 309 309 309 313 313 313 312 310 310 310 312 312 313 313 313 313 313 312 313 312 312 310 310 311 312 312 312 315 315 316 316 315
322 323 322 323 321 322 315 310 308 308 306 309 309 310 310 311 310 312 312 312 311 311 310 311 312 312 312 312 312 313 311 312 312 312 313 310 314 311 312 311 311 313 316 316 316
325 322 323 322 322 322 317 309 309 308 307 311 310 310 311 310 309 310 310 311 310 311 310 311 312 310 311 312 311 313 312 312 313 312 312 314 313 314 311 311 311 312 314 316 316
325 324 322 323 322 322 321 309 309 306 307 310 309 309 310 310 309 308 309 309 309 309 309 308 311 312 311 310 310 310 311 311 310 309 313 311 312 312 310 311 311 311 314 316 317
325 325 323 323 321 321 322 310 311 308 308 312 310 310 310 311 310 307 307 306 307 309 307 309 309 308 310 311 309 310 310 311 311 310 314 310 310 314 311 310 310 311 315 316 316
321 322 323 323 321 322 320 312 318 317 311 311 311 310 310 310 311 308 308 307 305 308 309 310 310 308 308 311 310 308 311 311 310 313 314 308 310 311 310 311 314 315 317 316 312
319 319 321 322 321 319 315 316 322 319 318 319 320 313 311 310 309 309 307 307 307 306 309 310 310 309 308 309 310 309 311 310 311 297 308 313 311 310 310 309 307 308 308 311 313
315 317 317 317 319 317 311 320 319 317 319 318 322 321 320 314 310 311 310 309 310 307 309 311 311 310 307 307 307 309 308 311 310 310 308 313 310 313 312 313 312 306 306 310 312
311 314 316 317 318 312 312 314 314 316 317 318 320 321 319 320 318 314 312 311 310 309 309 308 311 312 306 307 309 306 309 309 309 310 314 314 313 308 310 311 311 306 308 310 311
310 314 315 317 313 312 315 314 314 314 315 316 311 316 318 318 318 319 320 316 311 310 312 310 311 312 311 307 306 309 309 310 312 312 309 312 313 312 309 307 308 308 310 311 311
310 312 313 314 315 315 310 312 313 313 314 315 315 314 315 316 316 315 315 314 314 313 313 312 311 315 314 312 306 308 307 308 309 309 312 314 313 312 311 311 308 307 309 310 312
305 309 310 309 312 314 314 314 314 313 312 313 314 313 314 315 315 316 316 313 314 313 312 312 310 313 317 315 313 312 311 309 310 312 313 313 312 311 311 311 311 311 311 311 311
301 304 307 307 310 311 312 312 313 314 312 313 313 313 314 315 316 315 314 314 313 311 311 312 311 311 312 313 313 314 314 313 312 312 314 314 313 311 310 310 310 310 311 310 310
300 301 302 301 303 306 309 310 311 311 310 311 312 312 312 314 314 313 312 313 313 309 311 310 314 314 314 312 312 313 313 312 312 312 313 312 313 313 313 313 312 313 312 311 310
296 297 298 299 299 301 302 305 306 305 304 305 304 304 304 305 305 302 303 304 307 312 312 312 311 314 316 313 312 313 313 313 312 312 312 313 312 311 312 312 312 312 312 311 311

GFSSW_850_thetae_021.txt.gz
Theta_e
310 310 310 310 311 311 312 312 312 313 312 312 311 310 310 310 310 312 314 315 317 317 316 316 316 316 316 318 318 318 310 312 314 315 317 316 315 316 317 316 316 317 318 318 318
310 310 310 311 311 311 312 312 312 313 313 313 313 313 312 311 310 311 312 313 315 317 316 315 317 316 316 317 319 316 308 310 311 315 316 316 315 317 316 315 314 317 317 318 317
311 311 311 311 311 312 312 312 312 312 312 313 313 313 312 312 312 313 316 313 313 315 315 315 317 317 316 317 318 315 313 312 316 318 317 316 314 316 314 312 315 317 317 317 317
312 312 312 312 312 312 312 312 312 312 312 312 312 312 312 312 310 315 316 314 314 315 315 314 316 316 315 315 318 316 316 315 317 318 317 314 316 314 315 316 317 317 317 317 317
312 312 312 312 312 313 312 312 312 312 312 312 313 313 312 311 313 314 313 312 312 314 315 314 315 316 314 314 315 315 315 318 318 317 317 316 315 313 315 317 317 317 316 316 316
309 309 309 309 309 310 310 311 312 313 313 313 313 313 312 309 313 314 313 313 314 315 315 314 314 315 315 315 314 314 314 315 315 315 316 315 314 314 316 316 315 315 316 316 316
313 314 314 314 314 314 314 312 310 309 310 312 313 314 313 314 315 315 314 314 313 314 313 313 313 314 314 313 315 315 312 310 311 314 312 314 312 310 316 315 316 316 317 317 317
314 314 314 314 314 315 315 315 315 314 311 308 307 310 311 314 315 315 315 313 313 313 312 312 312 313 314 313 312 312 311 311 310 309 312 313 311 312 316 316 316 318 318 318 318
312 311 310 311 312 312 313 313 314 314 314 311 307 307 310 312 313 314 313 313 313 312 312 312 312 313 312 309 308 307 309 308 310 310 311 310 311 311 315 316 315 317 317 317 317
317 316 314 312 312 312 311 310 311 312 311 309 307 309 308 311 313 314 314 313 313 312 311 311 312 308 307 307 310 308 308 308 309 310 309 310 310 311 315 312 314 315 315 315 316
321 321 320 320 322 319 317 313 311 311 312 312 312 309 311 312 312 314 313 312 311 311 308 310 307 308 310 308 310 308 307 308 308 309 311 310 311 311 313 312 311 311 313 313 314
322 322 321 322 323 321 322 316 311 308 308 311 312 311 311 313 314 314 313 311 311 309 307 309 308 309 308 308 308 309 310 309 310 309 307 308 309 310 309 311 312 312 312 312 313
324 324 324 323 324 322 322 318 311 308 308 311 312 308 310 311 312 313 312 311 309 308 308 310 310 309 308 308 309 308 308 310 310 309 307 307 310 309 308 309 311 311 312 312 313
324 324 324 325 324 322 322 320 310 309 306 307 308 308 308 309 309 310 311 311 309 309 308 308 309 309 308 308 308 311 308 309 310 309 311 309 312 310 309 310 307 311 312 312 314
322 324 325 324 324 324 322 321 310 314 325 312 308 309 310 308 308 308 310 310 308 308 308 307 309 309 309 310 308 310 309 308 308 307 308 309 308 312 309 308 308 309 311 315 316
320 320 321 321 323 323 323 321 312 314 323 312 308 309 309 309 308 308 309 309 308 308 306 307 308 308 308 307 307 308 310 309 305 307 310 309 310 311 308 309 309 309 313 315 316
319 320 320 322 321 321 323 314 321 323 315 316 309 308 308 308 308 306 307 308 307 308 306 306 307 307 308 309 308 309 309 309 309 308 312 307 309 312 311 308 309 310 313 314 313
315 317 318 319 321 322 321 317 324 320 317 314 310 308 310 308 309 307 306 306 305 306 305 307 312 307 306 308 308 307 308 310 308 310 313 307 311 314 309 309 311 308 311 312 313
308 310 313 315 318 319 318 320 322 321 317 318 318 318 312 309 309 308 305 305 305 304 308 306 308 307 305 307 308 306 308 308 309 298 304 311 310 312 308 307 309 309 310 311 312
306 307 308 310 316 318 316 318 319 318 317 318 321 319 318 311 312 311 312 307 308 304 306 309 311 308 305 307 306 306 306 309 307 312 308 311 310 312 311 312 312 308 307 309 311
301 307 307 309 314 314 316 315 315 316 317 318 319 320 319 320 319 319 319 314 308 308 306 310 312 313 310 309 310 306 307 307 308 311 314 316 315 314 312 307 306 304 307 308 310
304 307 308 312 313 313 314 313 314 313 314 316 315 317 318 317 318 318 319 317 315 312 310 309 313 316 314 309 305 307 308 308 311 312 310 313 315 314 313 312 310 311 311 311 312
303 307 308 313 313 313 313 313 313 313 313 314 315 314 314 315 316 315 314 314 314 313 314 311 312 316 315 311 308 311 311 311 311 311 312 313 312 311 311 311 311 311 310 311 311
301 302 306 310 310 311 311 312 313 313 312 313 313 313 312 313 313 314 313 312 310 310 311 312 314 315 315 313 313 311 311 310 313 315 314 313 313 312 311 311 311 311 311 310 307
298 300 302 307 307 309 309 309 310 309 310 311 311 312 312 313 311 311 309 307 305 307 306 308 312 312 311 311 309 310 310 312 314 314 314 314 314 313 312 310 305 301 300 299 299
296 298 298 298 299 302 305 307 307 307 308 308 309 308 306 308 308 306 299 302 302 302 301 302 304 305 306 306 306 308 310 311 310 309 311 312 313 301 296 294 293 293 293 293 293
293 294 296 297 297 297 300 302 301 299 303 301 298 298 300 299 295 295 295 295 297 297 297 299 301 301 303 302 301 301 301 303 305 305 303 306 297 295 293 292 291 292 291 291 292

GFSSW_850_thetae_024.txt.gz
Theta_e
310 310 310 310 311 311 311 312 312 312 312 312 312 312 312 311 311 310 311 312 315 316 316 315 316 316 316 317 318 317 311 311 313 313 315 315 314 316 316 316 315 317 317 318 318
310 310 310 310 311 311 311 312 312 312 312 312 312 313 313 312 313 313 313 312 313 315 316 316 316 316 316 316 318 315 308 310 310 311 314 315 315 317 315 315 314 316 317 317 317
311 311 311 311 311 312 312 312 312 312 312 312 312 312 312 312 313 312 316 314 311 314 316 315 315 316 315 316 317 314 313 310 313 315 316 315 314 316 313 311 315 316 317 317 316
313 313 313 313 313 312 312 312 312 312 312 312 312 312 312 312 310 313 314 313 313 313 315 314 315 316 314 314 316 315 315 314 315 316 316 314 315 313 315 317 317 317 316 316 316
312 311 311 311 311 311 311 312 312 312 312 312 312 313 313 312 313 314 313 313 312 313 314 314 315 315 314 313 313 313 314 316 317 316 317 317 314 313 315 318 317 316 315 315 316
309 309 310 310 311 311 311 310 310 310 310 312 312 312 313 309 314 313 313 313 313 313 314 314 314 314 314 314 313 313 313 313 314 315 315 314 315 313 316 316 316 316 315 316 316
315 315 315 315 316 316 316 316 316 316 313 310 308 309 312 314 314 314 315 314 313 313 314 314 313 314 314 312 313 314 312 308 309 312 310 312 311 309 315 315 315 315 315 316 317
313 313 312 312 312 313 313 314 315 315 315 314 311 307 306 310 312 314 314 313 312 312 312 312 312 312 313 312 311 310 309 310 309 308 311 312 311 312 314 313 314 315 316 317 317
315 314 313 312 311 311 311 310 310 312 313 313 312 308 307 311 309 311 312 312 312 312 312 311 311 312 311 308 308 306 308 307 307 308 309 309 309 309 313 313 314 315 315 315 315
320 319 319 319 319 320 319 317 313 309 310 310 309 308 311 312 311 312 313 312 312 311 311 311 311 307 305 307 309 308 306 306 307 308 308 309 308 308 313 310 311 313 313 314 314
321 321 321 321 322 322 322 322 314 312 311 312 312 310 310 310 310 312 313 312 311 310 308 309 307 308 310 307 309 307 306 306 306 307 309 309 309 309 310 311 310 311 311 312 313
324 324 324 324 323 323 322 319 313 312 311 318 317 312 313 311 312 313 312 311 310 308 306 307 307 308 307 307 307 307 308 308 309 308 306 307 309 308 308 309 311 311 311 312 312
324 324 323 323 324 324 322 320 316 309 310 315 316 312 314 311 311 312 312 310 309 307 306 309 309 307 307 307 308 306 306 308 308 307 305 305 309 307 307 308 309 310 311 311 312
324 325 324 324 323 323 323 322 319 313 311 311 308 308 307 308 308 310 311 311 308 309 307 307 307 308 307 307 307 310 306 308 308 308 309 307 310 309 312 311 307 309 311 312 314
322 322 322 322 322 324 322 323 320 316 324 313 307 309 310 307 307 308 309 309 308 307 307 308 308 308 308 308 306 308 308 307 307 307 307 308 308 311 308 309 307 307 311 313 313
321 320 320 320 320 322 323 323 317 319 324 317 308 308 309 309 308 308 308 309 308 307 306 306 307 306 307 306 306 307 309 307 304 306 309 308 309 309 308 310 310 309 312 312 313
316 317 318 320 320 321 321 321 320 323 317 317 309 308 307 308 308 306 307 307 306 309 306 306 306 306 307 308 307 308 307 308 308 308 312 307 307 312 310 308 309 309 312 313 311
311 313 316 318 320 320 320 319 320 321 320 314 310 308 311 307 308 306 305 306 304 305 305 307 315 306 305 307 308 306 307 310 311 309 314 307 309 311 307 309 309 308 311 310 311
309 308 308 310 314 316 318 320 320 319 318 319 318 320 317 310 310 308 305 305 305 305 310 307 308 305 305 306 307 306 308 307 310 300 305 311 311 310 306 307 307 309 311 308 311
306 306 306 307 308 316 317 318 317 317 317 318 321 319 319 313 310 309 309 308 307 304 306 309 314 308 306 306 306 306 305 309 308 313 312 312 310 313 311 311 309 305 305 310 312
297 301 304 306 309 314 315 314 315 315 316 317 319 319 319 319 318 318 319 315 307 307 305 312 312 313 312 308 308 306 307 307 307 311 316 317 315 313 310 308 307 306 309 310 309
302 303 306 310 313 312 312 312 312 313 313 314 316 317 317 317 317 317 317 317 316 310 309 311 315 315 314 310 306 307 310 309 313 312 309 312 314 312 311 310 308 305 302 304 303
302 304 306 311 310 310 311 311 312 312 312 313 313 313 313 314 315 314 314 313 313 311 313 311 314 316 313 309 307 310 309 309 311 312 315 315 314 311 311 309 298 298 297 297 296
300 300 304 307 308 309 309 309 309 310 312 312 312 312 312 313 312 313 313 311 308 308 309 311 313 315 316 313 311 311 311 311 310 311 313 313 314 313 305 299 295 294 293 293 293
297 298 300 304 304 305 307 308 308 307 309 308 309 310 310 312 312 311 310 305 305 304 304 307 310 311 310 306 306 307 307 306 306 307 308 307 310 308 296 293 293 294 292 291 291
296 297 298 297 298 299 301 303 305 306 306 306 306 306 306 308 306 307 298 301 301 299 299 300 301 302 302 302 302 302 301 302 301 301 304 306 305 294 293 292 292 293 292 291 290
293 294 295 295 296 296 296 299 298 297 298 297 296 298 299 300 296 296 295 296 296 297 296 297 296 294 298 298 295 295 295 296 296 297 297 300 294 292 291 291 290 291 291 291 289

GFSSW_850_thetae_027.txt.gz
Theta_e
310 310 310 310 310 311 311 311 311 312 312 312 312 312 312 312 312 312 313 312 312 315 315 315 315 315 315 316 317 316 313 313 314 311 313 314 314 315 316 316 315 316 317 317 317
310 310 310 310 311 311 311 311 311 312 312 312 312 312 312 312 313 313 313 313 311 314 315 315 315 315 316 316 317 315 311 311 310 309 313 314 314 316 315 315 314 316 317 317 317
311 311 312 312 312 312 312 312 312 312 312 312 312 312 312 312 313 312 315 313 312 312 315 315 315 315 315 315 316 313 313 310 312 312 313 314 313 315 314 313 317 317 317 316 316
312 312 312 312 312 312 312 312 312 312 312 312 312 312 312 312 310 312 313 313 313 313 314 315 314 315 314 313 315 314 314 313 315 315 315 313 314 313 314 317 316 317 317 317 316
311 310 310 309 309 310 310 310 310 310 311 311 312 312 312 312 313 314 313 313 312 313 314 314 314 315 313 312 313 313 313 315 316 315 315 315 314 313 314 316 315 316 316 315 315
310 311 312 313 314 314 315 315 315 315 314 312 310 309 310 310 313 314 313 313 313 313 313 314 313 314 313 313 312 312 313 313 313 314 314 313 314 313 314 314 314 315 315 315 314
316 315 315 315 315 315 315 315 316 317 317 317 315 312 308 310 313 313 314 314 313 313 313 313 313 313 313 311 312 312 311 308 308 311 310 311 311 309 314 314 314 314 314 314 315
314 313 313 312 312 311 311 311 311 312 312 313 313 313 312 316 312 310 311 312 312 312 313 313 313 312 312 312 310 309 308 309 309 308 310 312 311 311 313 312 313 314 314 314 314
318 318 318 317 317 317 318 317 316 314 310 310 311 310 311 313 312 311 309 311 311 311 311 311 311 311 311 308 307 306 308 306 307 307 308 309 310 309 312 311 312 313 313 313 314
320 320 321 321 321 321 322 321 320 316 311 310 309 308 311 313 312 311 311 310 311 310 310 311 311 307 304 307 310 308 306 305 307 309 306 308 309 309 311 310 309 310 311 311 312
323 323 324 324 324 324 324 323 320 316 314 314 312 311 312 312 310 311 312 311 311 310 308 309 307 308 309 307 306 307 305 305 305 306 307 309 309 308 308 308 309 310 310 310 310
324 324 323 323 323 323 324 322 318 315 311 321 321 317 320 313 311 312 311 310 310 308 306 306 307 307 307 306 306 307 308 308 308 307 304 306 308 309 309 309 310 310 310 310 311
324 324 323 323 323 323 323 322 321 313 311 317 317 314 315 313 310 311 311 310 308 306 305 308 309 307 306 307 307 305 306 308 307 306 305 304 308 307 307 307 309 312 310 311 311
323 322 322 323 323 323 323 322 322 317 313 312 309 308 307 308 308 309 309 310 308 308 306 306 306 307 306 306 306 309 306 307 306 307 308 307 310 311 312 311 309 309 311 311 311
322 321 321 321 322 322 322 322 322 315 326 313 307 309 309 307 307 307 309 309 308 307 307 309 306 307 307 308 305 308 307 307 306 306 307 307 308 307 307 309 309 309 310 311 311
320 320 320 320 320 320 321 320 319 319 326 317 307 308 308 308 307 308 308 308 307 306 305 305 306 305 307 306 305 307 308 305 303 305 308 308 309 309 309 310 310 310 310 310 310
317 316 316 317 320 321 320 320 321 323 318 313 307 306 306 307 307 306 307 307 307 308 306 305 305 306 306 308 306 307 307 309 310 309 313 306 307 310 309 306 309 308 310 308 310
312 311 312 314 317 319 319 317 320 320 320 317 317 313 317 311 309 306 306 306 305 305 305 306 315 305 304 307 308 306 308 312 316 310 317 306 310 310 307 308 308 309 308 308 306
309 308 308 310 311 315 317 320 319 317 317 318 317 319 318 312 314 312 313 317 314 306 312 314 315 305 303 305 307 306 308 308 310 302 305 311 310 309 305 306 306 305 303 302 302
307 306 306 306 307 311 315 315 316 316 316 317 320 319 318 315 311 309 309 307 306 304 305 309 313 310 306 305 305 306 306 309 308 314 315 313 311 312 311 310 304 301 300 300 301
301 299 303 305 307 312 313 310 312 314 316 316 317 318 318 318 315 316 315 315 310 308 306 310 313 313 312 307 307 306 307 307 307 314 317 316 314 309 306 300 300 299 298 297 298
299 298 304 309 311 310 311 310 311 311 312 312 314 314 315 315 316 315 316 315 313 308 310 312 315 315 315 311 305 307 308 309 313 313 310 313 314 312 301 299 296 295 294 294 294
302 302 308 310 309 309 309 310 311 310 310 312 312 312 312 312 314 312 312 311 311 311 313 311 313 315 313 309 307 309 309 309 312 312 315 316 314 308 306 298 294 293 292 292 292
299 296 303 308 308 307 306 306 307 308 309 310 310 310 310 311 310 311 311 310 309 308 308 309 311 314 315 312 310 312 311 309 310 310 311 310 309 307 306 299 293 294 292 291 291
297 296 299 297 301 304 305 305 306 305 307 307 308 308 308 310 308 308 308 306 304 302 303 306 309 308 309 309 304 304 304 303 304 304 305 305 304 304 298 293 292 291 292 293 292
296 296 297 296 298 300 301 302 303 302 304 303 305 300 301 305 306 306 301 301 300 297 299 300 302 301 297 300 301 300 299 299 300 300 300 301 301 293 292 291 290 289 290 291 290
293 294 294 293 295 295 295 299 297 297 296 296 296 296 297 300 296 296 295 296 296 297 296 297 298 296 300 299 294 296 295 296 295 295 296 297 294 289 289 290 290 289 289 290 288

GFSSW_850_thetae_030.txt.gz
Theta_e
310 310 310 310 310 310 311 311 311 311 311 312 312 312 312 312 312 312 313 313 312 313 315 316 315 315 315 316 317 317 320 320 319 319 319 317 318 315 316 316 315 317 317 318 317
310 310 310 311 311 311 311 311 311 311 311 311 312 312 312 312 312 313 313 313 312 311 314 315 315 315 317 317 317 319 320 319 318 318 318 317 317 318 316 317 317 316 317 317 317
311 311 312 312 312 312 312 312 312 312 312 312 312 312 312 312 313 312 314 313 313 311 314 315 314 315 317 317 318 319 319 319 316 315 314 316 316 316 317 318 318 318 317 317 317
312 312 312 312 312 311 311 311 311 311 311 311 311 312 312 312 315 312 314 313 313 313 313 314 314 316 317 318 317 318 317 317 317 315 315 316 316 316 316 317 317 317 316 316 316
311 311 310 310 310 311 311 312 313 313 313 313 312 310 309 311 313 314 313 313 312 312 313 314 315 316 317 317 316 317 318 317 316 315 315 315 316 317 316 316 316 316 315 314 315
311 312 313 314 315 316 317 317 318 318 318 319 318 316 312 309 312 314 313 312 312 312 313 314 315 314 315 315 316 315 315 315 315 314 315 315 316 315 315 315 314 314 314 314 313
316 316 316 315 314 313 313 313 314 314 314 314 314 315 315 317 315 312 312 313 312 312 313 313 313 314 314 315 313 313 315 315 315 313 314 313 315 315 315 314 313 314 314 314 314
315 315 315 315 315 315 315 314 314 313 313 311 310 312 313 316 317 315 310 309 311 312 313 313 313 313 313 312 312 313 312 315 315 311 312 314 315 316 315 312 313 314 314 314 314
318 319 319 320 320 320 320 320 320 320 318 315 310 310 312 313 312 312 310 309 311 311 312 312 312 312 312 314 314 314 315 315 314 313 312 314 315 315 313 312 313 313 313 313 313
320 321 322 323 323 323 324 323 323 320 315 312 310 309 311 311 312 312 311 310 310 311 311 311 311 313 312 314 316 317 315 314 313 314 312 312 313 313 312 312 312 312 313 313 313
324 324 324 324 323 323 324 324 322 319 319 320 318 314 316 313 312 311 311 310 310 311 313 311 313 314 315 314 315 313 313 313 314 314 312 313 314 313 312 312 312 313 313 313 313
323 323 323 322 322 322 323 323 322 319 315 322 322 321 318 313 313 312 310 310 311 313 310 311 313 314 313 311 311 312 313 314 314 313 310 313 313 313 313 313 313 313 313 313 312
322 322 324 323 323 323 323 323 322 320 315 318 316 315 315 314 312 313 311 310 311 311 311 314 315 311 311 312 312 313 313 314 314 313 311 311 314 314 314 312 313 312 312 311 310
322 322 323 322 321 323 322 322 321 320 321 319 311 309 307 309 309 308 309 309 310 312 311 312 311 310 310 311 312 314 314 312 311 311 313 311 315 317 316 316 315 312 310 310 310
322 322 321 321 322 321 321 321 319 318 328 314 308 309 308 308 307 308 308 309 311 311 310 314 310 310 311 312 310 313 309 310 310 311 311 313 313 319 314 314 314 311 310 308 307
321 320 320 319 320 320 320 320 319 323 328 318 308 309 309 308 307 308 308 308 307 309 308 310 306 308 311 308 309 308 310 311 309 311 316 317 315 316 315 314 313 310 307 306 304
319 318 318 316 317 319 320 319 322 326 321 318 312 309 310 309 308 308 310 311 316 318 317 316 316 308 307 310 307 309 311 316 321 319 321 311 315 315 315 313 309 307 305 303 302
315 314 313 314 315 318 319 319 323 320 321 319 317 313 321 314 315 312 315 316 315 312 314 317 319 310 308 310 314 311 312 320 324 323 323 319 320 319 313 307 306 305 304 303 301
311 310 309 311 311 316 317 318 319 318 319 319 318 320 320 316 317 317 317 319 316 313 316 317 317 309 305 307 309 310 311 313 314 316 317 317 317 313 309 307 306 304 303 301 299
308 307 307 307 307 313 314 314 314 316 317 318 319 319 319 318 316 313 315 310 310 306 307 314 318 314 309 306 307 310 311 314 312 318 319 317 317 316 311 308 306 304 301 299 297
306 303 304 305 307 312 312 311 311 312 314 316 316 317 316 317 317 316 316 316 315 313 308 311 314 316 312 312 313 309 309 309 311 315 319 319 316 313 310 306 305 301 298 297 296
298 302 302 307 310 310 311 310 310 310 311 313 313 315 315 315 315 314 314 314 313 308 312 311 314 316 314 313 311 309 312 312 314 315 314 315 315 312 306 302 299 297 295 294 294
298 302 308 310 309 310 309 310 310 310 310 311 311 312 311 312 312 311 312 310 310 312 313 311 315 316 316 313 310 311 312 311 313 313 316 317 316 307 302 298 296 295 294 293 293
298 302 304 308 307 307 308 307 308 307 308 309 309 311 311 310 310 311 311 311 309 308 307 309 310 313 314 312 311 313 311 308 309 312 313 313 311 308 307 305 298 295 293 293 292
297 299 301 306 306 307 306 305 306 307 306 307 308 309 308 309 308 308 307 306 305 301 304 306 309 308 308 308 308 307 306 305 305 305 306 307 306 305 304 296 293 291 291 292 292
296 297 297 298 298 302 305 305 304 303 304 304 304 304 302 305 306 306 304 304 304 300 301 300 305 303 302 303 303 303 301 301 301 301 300 301 302 300 294 293 293 291 290 290 290
294 295 295 295 297 300 300 301 300 300 297 298 298 299 299 300 299 298 297 297 298 299 299 298 300 301 302 301 298 299 299 300 300 299 299 298 297 293 293 293 292 291 290 290 290

GFSSW_850_thetae_033.txt.gz
Theta_e
310 310 310 310 310 310 311 311 311 311 311 311 311 311 312 312 312 312 313 313 312 312 313 316 316 316 316 319 318 319 321 321 322 321 320 319 319 319 318 318 318 318 318 319 318
310 310 311 311 311 311 312 312 312 312 312 312 312 312 312 312 312 313 313 312 312 312 312 315 317 317 319 320 320 320 322 321 321 320 319 318 318 318 318 318 318 319 319 318 317
311 311 312 312 312 312 312 312 312 312 312 312 312 312 312 312 314 314 314 313 313 312 313 316 316 317 318 319 320 320 321 320 319 319 318 318 318 317 318 319 318 318 318 318 318
312 312 312 312 311 311 311 311 311 311 312 312 312 311 310 310 316 312 315 313 312 312 313 314 316 317 318 319 318 320 319 319 319 318 317 318 317 317 317 317 317 317 317 317 317
311 311 310 310 311 312 313 314 315 316 317 318 318 317 316 313 313 314 313 313 313 312 313 315 316 317 318 317 318 319 318 317 318 318 318 317 317 317 317 317 317 317 317 317 317
311 312 314 315 316 316 317 317 318 318 318 319 318 318 316 315 315 312 313 313 312 312 314 315 316 316 316 316 317 317 316 316 316 316 316 316 317 316 316 316 316 316 316 316 316
317 317 316 316 315 314 314 314 314 314 313 313 312 312 313 316 318 317 315 312 312 312 315 315 315 315 316 317 316 315 315 316 316 316 317 315 316 317 316 316 316 315 315 316 316
315 315 315 316 317 318 318 318 318 318 318 317 315 310 313 314 314 314 313 311 311 312 313 313 313 314 315 315 315 315 316 317 318 315 315 314 316 317 316 315 315 315 315 315 315
317 317 318 319 320 321 322 322 322 322 321 318 314 310 314 312 312 312 311 310 310 311 312 313 313 314 315 316 316 317 317 318 318 317 315 315 316 316 315 315 315 315 316 315 315
319 320 321 322 322 323 323 324 324 322 319 315 311 311 312 311 311 311 311 310 311 311 312 312 313 315 315 316 317 319 320 319 318 317 317 316 316 316 316 316 316 316 315 315 315
322 324 324 323 323 322 322 323 322 321 319 321 322 318 320 315 314 311 311 310 311 312 314 313 315 315 317 317 317 317 316 317 317 317 317 317 317 316 315 315 316 316 316 315 315
324 323 322 322 323 323 323 322 323 322 321 321 322 321 318 316 315 313 311 312 312 314 314 314 315 316 316 316 314 315 316 316 317 317 317 316 315 315 315 316 316 316 315 315 313
324 323 322 323 323 322 323 322 322 320 319 321 317 316 313 314 318 318 312 313 314 316 314 316 318 317 314 315 315 316 316 316 316 316 314 315 315 317 318 319 316 313 313 312 310
322 323 322 323 322 323 321 322 320 318 322 322 314 310 308 310 312 309 310 311 313 316 316 317 313 312 313 314 314 315 315 314 314 314 315 313 316 317 319 319 314 312 310 309 307
324 322 322 321 322 323 322 321 320 317 328 316 310 309 308 310 310 309 309 310 313 314 313 315 312 312 313 313 314 314 312 312 312 313 314 315 316 319 320 317 313 311 309 306 305
322 321 321 320 320 320 320 320 318 323 327 321 311 312 311 309 309 309 310 309 310 311 312 313 310 311 314 312 312 311 311 313 314 314 319 319 320 320 317 314 312 309 307 305 304
320 319 319 318 320 319 320 320 324 324 322 322 315 312 314 313 311 311 313 313 317 319 320 317 316 318 311 313 312 310 313 321 323 321 322 316 321 318 316 312 311 308 306 304 303
318 317 317 315 315 318 318 322 323 320 320 321 319 317 321 318 319 316 317 319 318 317 319 318 317 316 311 313 315 314 316 321 325 323 323 319 320 320 313 309 308 307 305 303 302
315 314 313 312 312 316 319 323 320 318 318 319 320 320 320 320 319 319 319 319 317 317 318 317 317 312 309 310 311 315 315 315 321 319 319 317 317 317 310 309 308 307 305 302 300
310 309 309 311 309 313 317 317 316 315 317 318 319 317 317 318 317 316 316 314 313 309 310 315 318 317 313 308 309 309 309 315 315 319 319 316 316 317 313 311 309 306 303 301 299
307 306 307 307 307 313 314 312 311 311 313 316 316 316 314 314 315 315 316 316 316 314 311 315 315 316 313 313 314 312 311 310 311 315 318 318 316 315 312 310 308 303 300 299 298
304 307 303 307 310 310 312 310 309 311 312 312 314 314 314 313 313 313 314 313 314 311 313 313 314 315 314 312 312 313 313 313 314 314 314 315 315 315 307 306 302 301 299 297 295
302 305 304 309 311 312 310 310 310 311 311 311 313 313 312 312 312 310 310 311 312 312 313 312 313 314 312 308 311 313 312 312 313 313 316 318 317 310 308 303 299 299 296 295 294
302 305 306 307 309 309 309 309 310 309 309 309 310 309 310 310 309 309 309 311 310 310 307 309 311 312 313 308 310 311 310 311 311 312 311 311 311 309 308 308 306 299 296 294 294
300 302 304 307 307 308 307 306 307 308 307 307 307 307 307 307 307 308 308 308 307 303 306 307 308 307 308 308 307 307 306 307 307 307 308 307 307 306 305 302 297 294 292 293 293
299 300 300 304 305 307 307 307 306 305 305 305 307 307 307 308 308 307 306 305 305 303 303 302 303 304 303 303 303 304 303 304 304 304 303 303 304 304 299 296 296 295 293 291 291
294 295 299 300 302 304 306 306 305 304 302 301 303 303 303 303 302 301 300 300 301 301 301 300 300 301 301 300 300 300 300 300 301 301 301 301 300 296 295 294 293 292 292 291 291

GFSSW_850_thetae_036.txt.gz
Theta_e
310 310 310 310 310 311 311 311 311 311 311 311 311 312 312 312 312 313 313 314 313 312 311 315 316 316 317 320 319 319 320 320 321 321 320 319 319 319 319 318 318 318 318 318 318
310 310 310 311 311 312 312 312 312 312 312 312 312 312 312 313 313 314 314 313 312 312 311 314 317 317 318 320 320 320 321 321 319 318 318 318 318 318 317 318 318 318 318 319 318
310 311 312 312 312 312 312 311 311 311 311 312 312 312 312 312 313 316 313 313 313 312 313 315 317 318 318 319 320 320 320 319 319 319 319 318 317 317 317 315 317 318 317 317 318
312 312 312 312 311 311 311 312 312 313 314 315 316 316 316 315 317 314 314 314 312 312 313 315 316 317 318 319 319 318 319 319 318 318 318 318 318 317 317 317 317 317 317 317 317
312 311 311 311 312 313 314 316 317 318 319 320 320 319 319 316 315 315 314 313 313 313 312 315 316 317 317 318 317 317 318 318 318 317 317 317 317 316 317 316 316 316 317 316 316
310 311 313 315 316 317 317 318 317 317 317 316 315 314 314 316 319 317 314 313 313 312 313 315 316 316 316 316 316 317 316 316 316 316 316 316 316 316 316 316 316 316 316 316 316
316 317 317 316 316 316 316 316 316 316 316 316 315 313 311 315 317 318 316 313 312 312 314 315 315 316 315 316 315 315 314 314 315 316 315 317 315 314 316 316 315 316 316 315 315
316 315 315 316 317 318 318 318 318 319 319 319 318 315 312 314 314 313 314 314 312 312 312 315 315 314 315 315 315 315 314 315 316 317 315 314 314 314 316 316 315 315 315 315 316
316 316 317 318 319 320 321 321 322 322 321 320 316 312 315 312 312 312 312 311 312 311 312 312 313 314 314 314 314 314 314 315 316 318 314 313 315 315 316 316 316 316 316 316 316
317 318 319 320 321 322 323 323 322 322 320 316 312 312 313 313 311 311 312 311 311 311 312 312 313 314 313 313 314 316 316 316 315 316 315 315 314 314 316 316 316 315 316 316 311
319 320 323 323 323 323 322 322 323 322 321 320 321 316 322 318 315 313 311 311 312 313 314 313 313 313 314 314 315 315 314 314 315 315 314 315 315 314 315 315 314 314 315 312 310
321 323 323 322 322 323 322 322 323 321 319 321 321 322 321 318 316 313 313 312 312 314 314 313 314 314 315 315 314 314 314 313 315 315 313 313 313 313 313 313 314 314 313 310 308
323 323 323 322 323 322 323 322 322 320 317 321 319 318 316 316 318 316 314 313 314 315 316 315 317 316 316 315 315 315 315 315 314 313 312 311 312 313 315 314 311 310 308 307 306
323 323 322 322 321 323 322 322 321 319 320 322 315 311 309 312 313 311 313 313 314 316 316 317 312 313 313 313 314 314 314 313 313 312 312 311 311 314 314 310 309 308 306 305 304
325 323 324 322 324 322 323 321 320 317 325 318 310 310 308 311 311 310 310 311 314 314 313 315 312 312 313 313 313 314 311 312 311 311 312 312 312 314 314 311 309 307 305 304 303
324 324 322 321 321 322 321 321 319 322 325 317 311 312 310 309 309 309 310 309 310 312 312 312 311 311 314 313 312 311 310 310 310 311 314 318 318 316 312 311 308 306 305 304 302
323 322 321 320 321 320 320 320 324 325 321 319 314 312 314 312 311 311 312 311 314 316 316 314 312 312 314 314 311 310 311 316 318 315 317 316 317 318 311 310 308 306 304 303 301
320 319 319 318 318 318 320 322 325 321 321 320 318 315 319 315 315 312 315 317 317 316 317 318 316 314 310 313 313 311 314 318 319 319 317 314 316 318 309 308 307 305 304 302 300
318 317 315 314 315 317 319 322 321 320 318 319 321 321 321 321 321 319 318 318 317 317 318 315 316 309 309 309 310 313 315 313 318 315 319 316 314 310 308 307 306 305 302 300 299
313 310 310 313 311 315 318 319 318 316 317 319 320 318 317 318 318 317 315 314 312 310 312 315 317 316 310 309 308 309 308 314 314 316 310 312 312 313 311 309 306 303 301 300 298
312 309 309 310 310 313 316 315 315 314 315 317 317 318 316 314 313 314 315 315 315 310 311 315 316 314 314 312 314 310 311 309 310 312 314 314 311 309 309 307 303 300 299 298 297
308 307 306 307 311 311 312 311 310 310 310 312 312 313 313 312 312 312 313 312 314 312 313 313 314 313 312 310 309 310 311 311 313 314 310 312 312 304 303 301 301 301 299 297 296
305 306 305 309 310 310 310 310 310 310 310 311 312 312 311 312 312 311 311 311 312 312 313 312 311 310 308 307 310 311 310 310 311 310 312 314 313 307 302 301 302 303 300 297 295
303 305 305 308 309 310 310 310 310 309 310 310 310 310 311 311 310 309 309 312 309 309 309 308 310 307 305 306 307 306 306 306 306 310 308 308 307 305 304 303 302 303 302 296 294
303 302 305 306 307 308 308 308 309 309 309 308 309 309 309 308 308 308 308 307 307 305 307 307 306 306 306 306 304 303 303 305 305 304 304 303 302 303 303 300 296 294 293 293 293
300 300 302 303 305 307 307 306 307 306 307 307 307 306 306 307 307 303 303 305 305 302 304 302 297 299 295 301 302 302 301 301 301 301 301 301 301 301 297 296 296 295 293 292 291
297 298 301 302 303 306 306 305 306 306 305 304 304 304 305 303 301 300 301 300 301 301 300 300 297 292 292 299 297 293 297 299 299 299 299 298 298 293 295 294 293 292 292 292 292

GFSSW_850_thetae_042.txt.gz
Theta_e
310 310 310 310 310 310 311 311 311 311 312 312 312 312 313 313 313 313 314 314 313 313 312 312 315 315 316 318 319 318 311 313 315 315 315 317 314 317 317 317 317 317 317 317 317
309 309 310 310 311 311 311 312 312 312 312 312 312 312 313 313 314 314 313 312 312 312 311 312 314 316 317 318 319 315 310 312 314 314 316 316 316 316 316 316 316 315 315 316 316
309 310 310 311 311 312 312 312 312 312 312 313 313 314 315 316 316 315 312 312 312 312 312 314 316 317 316 317 319 316 313 314 317 317 316 316 315 316 315 313 315 315 316 316 315
309 310 311 312 312 312 312 312 312 313 314 316 318 319 319 319 314 313 313 313 312 312 313 313 316 316 315 315 317 317 317 317 317 318 316 315 316 316 316 316 315 316 315 315 315
311 312 312 312 312 311 312 314 316 318 319 319 318 317 316 317 319 318 315 315 313 312 312 313 315 316 314 314 314 314 314 315 316 315 315 315 314 313 314 315 316 315 314 314 314
312 312 311 311 311 313 316 318 319 318 317 316 316 316 315 313 317 318 318 316 313 312 312 313 315 315 315 314 313 313 313 314 315 315 314 313 312 314 316 316 315 315 313 313 314
311 310 311 314 317 318 318 317 316 317 317 318 318 318 316 316 316 316 317 316 313 312 312 313 315 315 314 313 314 314 313 311 312 313 312 313 313 312 316 315 315 314 312 313 314
315 316 318 318 317 317 316 317 317 318 318 319 320 318 316 316 314 314 314 314 313 313 313 313 315 315 315 314 313 312 311 312 312 313 313 312 312 312 316 315 315 312 311 311 311
318 318 317 316 316 317 317 318 318 320 320 321 318 315 315 313 312 312 312 312 312 312 312 313 315 314 313 309 309 310 310 310 312 312 313 312 311 311 315 314 313 310 310 309 308
315 315 315 316 317 318 319 320 321 321 321 320 315 316 315 313 312 311 311 311 311 311 311 312 312 308 307 307 311 311 311 310 311 312 311 311 309 309 313 313 310 308 306 306 306
315 315 316 316 318 320 321 322 321 321 320 320 317 314 317 315 314 314 313 312 311 312 310 311 308 309 308 308 309 310 311 311 310 310 311 311 310 310 308 309 306 304 304 303 302
315 316 317 318 321 322 321 322 321 320 319 320 321 321 321 320 319 315 314 312 312 310 310 310 310 310 309 309 310 310 311 310 310 310 311 310 309 306 306 305 304 303 302 301 301
316 317 319 321 322 321 321 321 321 321 318 319 319 320 320 319 319 318 314 312 310 309 309 310 312 311 311 313 313 312 312 312 313 309 309 309 309 309 305 304 302 301 300 300 300
318 319 320 322 322 321 322 322 321 320 315 317 316 315 316 316 314 314 311 312 312 311 309 311 311 312 312 313 312 313 311 311 311 310 310 308 312 309 307 304 302 300 300 300 300
321 322 323 323 322 322 322 321 321 317 323 315 311 310 310 313 310 309 311 311 312 312 311 314 311 311 312 312 310 312 310 311 310 309 309 308 309 308 306 306 302 300 299 300 300
322 321 321 323 323 323 322 321 320 318 322 312 308 309 307 308 308 308 310 310 310 309 309 310 310 309 310 310 309 308 309 308 306 306 310 308 310 311 308 307 302 300 299 300 299
322 322 322 323 323 323 322 320 321 323 317 313 309 308 308 307 308 308 308 307 309 311 311 312 310 309 310 312 308 308 309 312 313 310 313 312 310 311 305 305 302 299 299 298 299
322 322 324 324 324 322 321 321 323 319 318 312 310 309 310 308 308 308 309 310 308 311 312 315 317 310 309 312 313 308 309 311 310 313 312 311 315 312 302 301 301 300 299 299 299
323 323 323 322 322 322 321 323 323 320 317 316 314 314 314 314 312 309 308 310 311 309 315 314 315 308 308 307 309 310 311 309 310 309 314 312 308 305 302 299 299 298 299 300 299
323 322 320 321 319 320 321 322 321 317 316 317 318 317 317 318 317 311 310 311 314 309 311 313 314 312 309 309 307 309 308 311 308 307 312 311 311 310 304 301 298 297 299 300 301
321 316 317 318 318 319 321 319 316 314 315 316 317 317 316 315 316 314 315 313 309 308 311 311 311 311 310 311 310 306 308 308 311 308 306 305 309 306 305 301 299 298 301 302 303
314 312 315 315 313 312 313 313 314 313 313 313 313 314 315 312 312 311 312 311 311 310 313 311 310 307 310 308 307 308 307 307 311 309 306 309 310 305 304 301 300 301 303 303 301
314 309 312 312 313 312 310 311 311 309 310 311 311 311 310 311 313 309 308 309 310 309 311 310 307 301 305 305 307 308 308 308 308 305 304 311 308 302 300 300 301 302 303 303 300
312 307 307 310 309 310 310 311 311 309 308 310 309 309 309 309 308 309 310 309 308 310 310 309 304 304 308 303 305 305 306 305 302 299 300 307 304 303 301 300 300 300 300 301 301
306 306 306 308 310 308 309 309 310 309 308 309 309 308 310 310 309 308 308 306 305 307 305 306 304 306 304 304 304 303 303 303 303 302 301 302 300 301 299 297 299 299 299 300 296
302 302 303 304 309 308 309 308 308 309 309 308 309 308 308 309 308 306 305 305 305 304 304 301 299 298 295 299 302 301 300 299 301 302 301 301 301 300 299 297 295 295 296 299 297
300 301 302 303 304 308 308 308 308 306 304 306 307 305 306 306 304 302 302 302 302 302 302 300 296 294 299 296 294 293 294 297 296 296 296 295 296 292 294 294 294 295 293 293 292

GFSSW_850_thetae_045.txt.gz
Theta_e
310 310 310 310 310 310 310 310 311 311 311 312 312 312 312 313 313 314 314 314 313 313 312 312 314 315 315 317 318 317 309 310 314 314 314 316 314 316 316 316 316 316 316 315 315
310 310 310 310 310 310 311 311 311 312 312 312 312 313 313 314 314 315 313 313 312 312 311 312 313 314 316 317 318 313 307 310 311 314 315 315 315 315 315 315 315 314 315 315 315
309 309 309 310 310 311 311 312 312 312 312 312 313 314 315 317 318 315 312 312 312 311 312 313 316 316 315 317 318 314 311 312 315 316 316 315 315 315 314 313 315 315 315 314 314
309 309 310 311 311 312 312 312 312 312 313 315 317 318 319 319 316 314 312 313 312 312 312 313 316 316 314 314 316 316 316 315 316 316 316 314 316 315 315 316 315 314 313 313 314
309 310 310 311 312 312 311 312 313 315 318 319 319 318 317 316 319 319 314 313 314 313 312 313 314 315 313 313 313 314 314 314 315 315 314 314 314 313 314 315 314 313 312 313 314
310 311 312 312 311 311 312 314 317 319 318 317 317 317 316 313 317 318 318 317 315 312 312 312 314 314 314 313 313 313 313 313 314 314 313 312 312 312 315 315 313 313 312 313 313
311 311 311 310 310 313 316 318 318 317 317 317 318 318 317 317 316 316 316 316 313 312 312 312 314 314 314 313 313 313 311 309 311 312 311 312 312 311 316 314 313 311 311 312 312
311 311 311 312 315 317 318 317 317 317 317 318 319 319 317 316 316 315 314 314 314 313 312 313 314 314 314 313 311 311 310 311 311 312 312 312 312 312 315 314 310 309 309 309 309
313 315 316 317 317 317 316 316 317 318 319 320 320 317 316 314 314 314 313 312 312 312 313 313 314 313 313 308 308 308 310 309 310 312 311 311 311 311 314 312 309 306 305 306 306
317 317 317 316 315 316 317 318 319 320 321 320 318 316 316 314 312 312 311 311 311 312 312 312 312 307 306 306 311 310 310 309 310 311 311 311 309 309 310 308 306 303 303 303 302
315 315 315 315 316 317 319 320 320 321 320 319 317 317 315 314 312 310 311 311 311 311 308 310 307 307 308 307 309 309 309 310 309 310 311 310 309 308 305 304 302 301 300 300 300
316 315 315 316 317 319 321 322 321 319 320 319 321 318 315 316 314 314 312 312 311 310 308 309 308 308 308 307 308 309 311 310 309 309 309 309 309 304 303 302 301 300 299 299 300
316 316 316 317 319 321 321 321 321 321 319 319 319 319 320 319 318 318 314 311 310 308 308 310 312 310 309 309 311 311 310 311 312 310 308 308 308 307 303 301 300 300 299 299 300
317 316 316 318 320 321 322 321 321 320 317 316 316 317 317 318 317 318 313 313 310 310 308 309 310 311 310 312 311 314 310 311 311 310 311 307 311 308 304 301 299 299 299 299 300
318 317 317 319 321 321 321 321 321 318 324 315 312 311 314 316 311 309 309 311 310 311 310 313 311 311 312 312 311 313 309 309 309 308 308 308 309 306 304 303 300 298 299 299 299
319 318 319 319 321 321 321 321 319 319 325 313 308 308 309 308 308 308 310 311 311 309 309 311 309 309 311 308 309 307 309 307 305 306 310 308 309 309 306 305 300 299 299 299 299
321 319 320 321 322 322 322 320 321 324 316 312 308 306 307 306 307 307 307 307 308 310 310 310 310 309 310 310 308 308 311 314 311 309 313 308 308 308 305 301 301 299 298 299 299
323 321 321 322 322 321 320 320 323 321 320 310 309 307 308 306 306 307 306 308 306 310 310 313 316 309 309 310 311 308 311 311 307 312 312 309 314 312 301 299 300 300 299 298 299
324 322 321 322 320 321 319 324 322 320 316 312 311 310 310 310 308 308 307 308 308 307 316 314 315 307 307 307 309 309 310 308 309 298 309 310 309 304 300 298 298 298 298 299 299
321 321 321 322 323 321 321 323 321 318 316 312 313 313 311 315 313 307 307 308 312 307 311 312 314 310 308 308 306 308 307 311 307 307 306 309 310 310 302 300 297 296 298 299 300
317 317 319 321 322 319 323 321 320 315 315 316 314 317 315 316 313 310 313 312 310 307 310 310 311 311 309 309 309 307 308 307 309 305 304 303 307 304 304 301 298 297 300 301 301
314 314 316 316 317 315 321 316 315 312 314 314 313 315 314 312 315 315 315 313 309 310 312 310 309 307 310 307 305 306 307 307 311 308 305 307 309 303 303 301 299 299 302 303 302
315 314 314 311 318 314 311 313 314 314 315 315 316 314 313 315 316 311 309 308 309 309 311 310 307 303 306 306 306 308 307 305 305 303 304 307 308 301 300 300 301 301 303 303 302
312 310 310 311 309 310 312 313 313 310 311 313 313 310 310 311 313 311 308 308 308 309 309 309 305 306 312 306 305 306 307 305 302 300 303 308 306 302 301 300 299 300 301 299 300
309 309 309 309 309 309 311 309 312 310 308 309 308 311 311 310 309 308 308 306 305 307 305 307 306 304 303 304 303 303 303 304 303 304 305 305 304 303 301 300 301 302 299 298 299
304 304 305 305 309 309 310 308 310 311 309 310 309 309 309 310 309 308 307 306 307 303 305 300 301 300 304 300 302 304 302 303 303 304 302 302 303 302 299 300 300 299 298 297 297
302 302 304 303 306 310 308 309 308 309 307 307 308 307 308 308 305 303 304 304 304 303 303 300 299 300 308 295 296 299 297 300 300 300 302 303 302 291 294 294 296 296 296 295 296

GFSSW_850_thetae_048.txt.gz
Theta_e
310 310 310 310 310 310 310 310 310 311 311 311 312 312 312 313 313 314 314 314 313 312 312 312 313 314 315 316 317 315 307 308 312 311 314 315 314 315 315 315 315 315 315 314 315
310 310 309 309 310 310 310 311 311 311 312 312 312 313 313 314 314 315 314 313 313 312 311 312 313 314 315 316 317 311 306 308 310 312 314 315 314 315 315 313 314 314 314 314 314
310 309 309 309 310 310 311 311 312 312 312 312 313 314 315 316 318 315 312 312 311 311 311 312 314 314 314 316 317 312 310 310 314 314 314 314 314 314 314 313 313 314 314 313 313
309 309 309 309 310 311 311 312 312 312 312 313 315 317 319 319 316 314 312 312 311 311 312 313 315 315 313 313 315 315 315 314 315 315 315 314 314 314 314 314 313 313 312 313 313
309 308 309 309 310 311 312 311 311 312 314 317 319 318 318 317 318 319 313 313 312 312 312 313 313 314 313 313 313 314 314 314 315 314 313 313 312 312 313 312 312 311 311 312 312
308 309 309 310 311 312 311 311 312 315 318 318 317 317 317 314 317 317 318 316 315 314 312 312 313 314 314 313 312 312 312 312 313 313 312 312 311 312 311 311 311 311 311 311 310
309 309 310 311 311 310 310 313 316 318 318 317 317 318 318 317 317 316 316 316 317 313 311 312 313 314 313 312 312 312 311 308 310 311 310 311 311 309 312 310 310 309 309 309 309
310 310 311 310 310 311 313 316 318 317 317 317 318 319 318 317 317 316 316 315 314 312 311 312 313 314 314 313 310 310 309 310 310 310 311 312 313 312 309 310 308 308 308 308 308
311 311 311 311 313 315 317 317 317 317 317 318 319 318 317 315 315 315 314 313 313 313 313 313 314 313 312 308 308 306 310 309 309 310 310 310 311 311 310 309 304 304 304 305 305
316 316 315 316 317 317 316 316 317 318 319 320 319 317 317 315 313 313 312 312 312 312 312 313 312 307 305 306 312 310 309 308 309 311 310 311 310 308 305 306 301 301 301 302 303
316 316 316 316 315 315 316 318 319 320 319 318 317 317 315 315 313 311 311 311 311 311 308 309 306 308 308 306 308 308 309 310 309 309 311 309 308 306 303 301 300 300 299 300 301
316 316 316 315 316 316 317 320 320 319 319 319 320 317 316 314 311 310 311 311 311 309 307 308 307 307 307 306 308 308 309 309 308 309 308 309 309 303 301 300 300 299 299 299 300
317 316 316 316 316 317 317 318 320 321 319 320 319 319 319 316 315 313 311 311 310 308 307 309 311 308 308 308 308 308 308 309 311 309 308 307 308 305 300 299 299 299 299 299 300
319 317 316 316 316 316 318 318 321 321 316 315 316 318 318 318 316 318 313 313 309 309 308 308 309 310 308 309 308 310 308 310 311 309 311 307 311 308 302 300 299 298 299 299 300
321 319 317 316 317 319 317 318 321 318 322 315 313 313 315 318 312 310 309 311 309 310 309 314 310 309 311 311 309 312 308 308 308 307 308 308 308 306 302 301 299 297 298 299 300
324 320 318 317 317 318 319 321 320 319 323 315 308 308 311 309 308 308 309 310 311 309 308 311 308 308 310 308 309 306 308 306 304 305 310 309 310 309 305 304 299 298 299 299 299
321 322 319 318 318 318 321 320 320 321 316 313 309 307 309 306 307 307 307 308 310 312 310 309 309 308 309 308 307 309 310 313 311 310 313 307 307 308 306 302 301 298 299 299 298
321 323 321 319 318 318 321 319 321 320 318 308 308 306 308 306 306 306 307 309 306 308 308 311 315 308 307 309 309 308 310 312 311 309 310 308 312 312 301 299 300 301 300 299 298
320 322 322 321 319 319 317 323 321 319 317 309 309 307 307 306 306 307 306 308 309 305 313 312 315 306 307 307 308 308 310 308 307 296 306 309 308 304 299 298 297 298 299 299 298
320 321 320 320 320 321 319 320 319 318 315 310 315 309 309 310 307 306 306 306 308 306 310 312 314 309 306 306 305 308 306 311 307 307 306 307 308 307 303 299 296 296 297 299 299
322 319 319 320 320 319 322 319 319 319 316 314 316 312 309 313 308 306 307 308 308 307 310 309 312 310 308 308 307 307 309 306 307 304 304 302 305 303 304 300 298 297 299 300 300
319 316 318 320 318 317 321 319 319 318 314 314 313 315 313 313 311 307 309 310 309 309 311 309 310 308 310 306 305 306 307 307 310 308 304 305 309 301 302 300 299 299 301 301 301
315 314 314 318 318 318 315 316 316 313 315 315 315 314 313 313 316 312 311 308 307 310 312 309 309 304 307 307 305 307 305 305 305 303 304 306 307 301 300 300 300 300 302 302 301
313 311 309 311 312 314 314 314 315 312 313 314 315 312 313 314 315 313 310 308 308 308 310 310 307 307 313 308 307 308 306 305 304 304 304 309 307 305 302 301 299 300 302 302 301
311 310 310 309 309 310 310 309 313 312 310 311 311 313 313 313 314 314 309 307 306 308 305 308 310 304 302 303 303 304 306 306 306 308 308 309 307 304 303 301 302 304 302 301 300
305 306 306 306 311 310 309 306 308 308 307 307 310 310 312 310 310 309 308 308 309 304 306 302 304 301 299 301 302 303 303 304 305 303 303 303 303 299 302 303 301 302 302 300 299
303 303 302 305 308 311 311 309 308 309 308 308 307 309 310 311 308 305 307 306 307 306 305 304 302 301 307 297 301 308 304 303 303 301 303 304 305 293 296 297 299 299 299 299 298